Regional Weather Roundup
Issued by NWS

Home | Current Version | Previous Version | Graphics & Text | Print | Product List | Glossary On
Versions: 1 2 3 4 5 6 7 8 9 10 11 12 13 14 15 16 17 18 19 20 21 22 23 24 25 26 27 28 29 30 31 32 33 34 35 36 37 38 39 40 41 42 43 44 45 46 47 48 49 50
000
ASUS45 KTFX 261704
RWRMT
MONTANA HOURLY WEATHER ROUNDUP
NATIONAL WEATHER SERVICE GREAT FALLS MT
1004 AM MST WED NOV 26 2014

NOTE: "FAIR" INDICATES FEW OR NO CLOUDS BELOW 12000 FEET WITH NO
SIGNIFICANT WEATHER AND/OR OBSTRUCTIONS TO VISIBILITY.

* THESE STATIONS ARE NOT UNDER NWS QUALITY CONTROL. THEY DO NOT
   REPORT WEATHER SUCH AS PRECIPITATION OR FOG.

MTZ001>007-043-261800-
WEST OF THE DIVIDE
CITY           SKY/WX    TMP DP  RH WIND       PRES   REMARKS
KALISPELL      LGT SNOW  30  30 100 CALM      30.15S VSB 1/2
MISSOULA       FOG       32  32 100 CALM      30.18R VSB 2 1/2
BUTTE          PTSUNNY   30  28  92 CALM      30.12R
MULLAN PASS    LGT RAIN  32  32 100 N/A       30.11R VSB M1/4
* ESSEX        N/A       29  28  96 N/A        N/A
* LINCOLN      N/A       29  27  92 S5         N/A   WCI  24
* LOOKOUT PASS N/A       37  36  96 NE3G8      N/A
* POLSON       N/A       31  31 100 N/A        N/A
* RONAN APT    CLOUDY    32  30  92 N/A        N/A
* SEELEY LAKE  N/A       29  28  96 N/A        N/A
* THOMP F APT  CLOUDY    32  29  89 NE2        N/A
* YAAK HILL    N/A       32  30  92 N/A        N/A
$$

MTZ008-052>055-261800-
SOUTHWEST MONTANA
CITY           SKY/WX    TMP DP  RH WIND       PRES   REMARKS
BOZEMAN        FOG       27  27 100 SW3       30.14S VSB 3
DILLON         PTSUNNY   45  30  56 SW17G31   30.15R
* W YELLOWSTON PTSUNNY   35  31  85 SW7G18     N/A   WCI  29
* ENNIS APT    PTSUNNY   43  32  65 SE8        N/A
* THREE FORKS  PTCLDY    25   0  33 N/A        N/A
* BOULDER HILL N/A       26  23  88 SW12       N/A   WCI  15
* MONIDA PASS  N/A       28  28 100 SE15       N/A   WCI  16
* RAYNOLDS PAS N/A       41  32  70 SW4G19     N/A
* WHITEHALL    N/A       30  28  92 VRB1       N/A
* WISE RIVER   N/A       42  31  65 NW14G24    N/A
$$

MTZ009>010-012-014-046-048-049-054-261800-
EAST SLOPES AND CENTRAL MONTANA
CITY           SKY/WX    TMP DP  RH WIND       PRES   REMARKS
CUT BANK       LGT SNOW  27  27 100 SE6       30.12R VSB 1 1/4 WCI  20
GREAT FALLS    LGT SNOW  30  28  92 E5        30.13S VSB 1    WCI  25
HELENA         LGT SNOW  32  28  85 CALM      30.14R VSB 1
MALMSTROM AFB  LGT SNOW  28  30 N/A NE5       30.16S VSB 1 1/4 WCI  22
* DEARBORN     N/A       31  30  96 N/A        N/A
* EAST GLACIER N/A       25  23  92 SE5        N/A   WCI  19
* MONARCH      N/A       26  21  81 E2         N/A
* PENDROY      N/A       27  27 100 S4         N/A
* ROGERS PASS  N/A       28  25  89 SE8G15     N/A   WCI  20
* SAINT MARY   N/A       26  23  88 SE2        N/A
* SWEET GRASS  N/A       27  27 100 S11G16     N/A   WCI  17
$$

MTZ011-013-016-021-035-040-045-047-050-051-261800-
NORTH CENTRAL MONTANA
CITY           SKY/WX    TMP DP  RH WIND       PRES   REMARKS
HAVRE          FOG       28  25  89 E10       30.21F WCI  19
LEWISTOWN      LGT SNOW  28  25  89 E8        30.14S VSB 3    WCI  20
* N BAR RANCH  FOG       25  25 100 E7        30.16R VSB 3    WCI  17
* CHESTER      N/A       27  25  92 SE4G9      N/A
* DENTON       N/A       29  28  96 E5         N/A   WCI  24
* GEYSER       N/A       27  26  96 NE1        N/A
* JUDITH GAP   N/A       25  25 100 SE6        N/A   WCI  18
* LOMA         N/A       30  29  96 NE8        N/A   WCI  22
$$

MTZ017>020-022>027-061-062-261800-
NORTHEAST MONTANA
CITY           SKY/WX    TMP DP  RH WIND       PRES   REMARKS
GLASGOW        CLOUDY    21  18  88 SE8       30.28R WCI  11
GLENDIVE       CLOUDY    18  14  84 NE9       30.30S WCI   7
JORDAN         CLOUDY    27  23  85 E8        30.25R WCI  19
SIDNEY         CLOUDY    16   9  74 NE9       30.37R WCI   5
WOLF POINT     CLOUDY    19  14  81 E8        30.34R WCI   9
* BEAVER HILL  N/A       17  15  92 N8         N/A   WCI   7
* CIRCLE       N/A       21  18  88 NE9        N/A   WCI  11
* LINDSAY DVD  N/A       19  17  92 NE5        N/A   WCI  12
* NAVAJO       N/A        8   3  80 E6         N/A   WCI  -2
* SACO         N/A       24  20  85 E8         N/A   WCI  15
$$

MTZ028>042-056>058-261800-
SOUTHCENTRAL AND SOUTHEAST MONTANA
CITY           SKY/WX    TMP DP  RH WIND       PRES   REMARKS
BAKER          LGT SNOW  25  19  78 N9        30.25R VSB 3    WCI  16
BILLINGS       LGT SNOW  28  27  96 S5        30.19S VSB 3/4  WCI  22
LIVINGSTON     CLOUDY    27  25  92 CALM      30.12S
MILES CITY     LGT SNOW  28  25  89 NE7       30.26R VSB 1 1/2 WCI  21
* LAUREL APT   CLOUDY    28  21  75 N/A        N/A
* ALZADA       N/A       29  25  85 W7         N/A   WCI  22
* HYSHAM       N/A       29  27  92 W4         N/A
* LAME DEER    N/A       26  24  92 W5         N/A   WCI  20
* REED POINT   N/A       29  28  96 E3         N/A
* ROSCOE HILL  N/A       25  22  88 N/A        N/A
$$

REGIONAL REPORTS...DAKOTAS
CITY           SKY/WX    TMP DP  RH WIND       PRES   REMARKS
WILLISTON      CLOUDY    10   3  73 NE3       30.36R
DICKINSON      HAZE      19  12  74 N5        30.26R WCI  12
BEACH          LGT SNOW  18  16  92 N8        30.28R WCI   8
CROSBY         SUNNY      0  -4  83 N3        30.39R
BISMARCK       LGT SNOW   9   1  70 NE6       30.38R WCI  -1
GRAND FORKS    PTSUNNY    1  -8  65 N16       30.45R WCI -19
FARGO          CLOUDY     7  -4  60 N18       30.40R WCI -12
BUFFALO SD     CLOUDY    28  21  75 W9        30.16R WCI  19
$$

REGIONAL REPORTS...WYOMING/IDAHO/WASHINGTON
CITY           SKY/WX    TMP DP  RH WIND       PRES   REMARKS
GILLETTE       LGT SNOW  27  23  85 NW3       30.19R VSB 2
SHERIDAN       LGT SNOW  28  25  89 CALM      30.20R VSB 1 3/4
CODY           CLOUDY    25  25 100 CALM      30.14S
YELLOWSTONE LA CLOUDY    34  28  79 W9G20     30.19R WCI  27
SALMON         CLOUDY    32  30  92 CALM      30.22S VSB 1 1/2
MULLAN PASS    LGT RAIN  32  32 100 N/A       30.11S VSB M1/4
SAND POINT     FOG       32  32 100 CALM      30.17S VSB 2 1/2
SPOKANE        FOG       36  36 100 S7        30.15R VSB M1/4 WCI  30

$$




USA.gov is the U.S. government's official web portal to all federal, state and local government web resources and services.